Location: Newark
(52.3500°N, 175.9667°E)
Time: 22:11:43
(UTC+00:00)

Transit 4A - Pass Details

Date: 28 April 2021
Orbit: 871 x 974 km, 66.8° (Epoch: 16 May)

Event Time Altitude Azimuth Distance (km) Brightness Sun altitude
Rises 16:03:45 0° 315° (NW) 3,545 10.8 -7.0°
Reaches altitude 10° 16:06:38 10° 327° (NNW) 2,585 10.3 -6.6°
Maximum altitude 16:11:50 30° 27° (NNE) 1,550 9.9 -5.9°
Drops below altitude 10° 16:16:55 10° 88° (E) 2,533 11.3 -5.3°
Sets 16:19:43 0° 99° (E) 3,462 11.8 -4.9°
